Back to catalog

KUIPER-00102

AliveCommunicationsLEO
NORAD 65140·PAYLOAD·🇺🇸 United States

Launched Aug 11, 2025 from Cape Canaveral Space Force Station

Loading…

Next Passes (next 24 hours)

TLE

FreshSource: CelesTrak SupGP

Epoch: Sep 14, 2026, 13:47 UTC

1 65140C 25171J   26257.57476852 -.00017039  00000+0 -22309-2 0  2574
2 65140  51.8988  37.7939 0000613 129.1988 289.6315 14.79939832    13

Track KUIPER-00102 in real time with AllMySat

Download on the App Store